Regional Weather Roundup
Issued by NWS

Home | Current Version | Previous Version | Text Only | Print | Product List | Glossary Off
Versions: 1 2 3 4 5 6 7 8 9 10 11 12 13 14 15 16 17 18 19 20 21 22 23 24 25 26 27 28 29 30 31 32 33 34 35 36 37 38 39 40 41 42 43 44 45 46 47 48 49 50

000
ASUS43 KMKX 200311
RWRWI

WISCONSIN REGIONAL WEATHER ROUNDUP
NATIONAL WEATHER SERVICE MILWAUKEE/SULLIVAN WI
1000 PM CDT TUE AUG 19 2014

NOTE: "FAIR" INDICATES FEW OR NO CLOUDS BELOW 12,000 FEET WITH NO
SIGNIFICANT WEATHER AND/OR OBSTRUCTIONS TO VISIBILITY.

WIZ001-002-006>008-014>016-023>028-200400-
NORTHWEST WISCONSIN

CITY           SKY/WX    TMP DP  RH WIND       PRES   REMARKS
SUPERIOR ARPT  CLOUDY    62  61  97 CALM      29.80R
ASHLAND        CLOUDY    60  58  92 E7        29.82R
HAYWARD        MOCLDY    61  61 100 CALM      29.81R FOG
SIREN          MOCLDY    66  65  96 CALM      29.80S
RICE LAKE      CLOUDY    66  63  90 CALM      29.81S
LADYSMITH      MOCLDY    66  63  91 N3        29.81R
EAU CLAIRE     CLOUDY    67  65  93 W3        29.77R
MENOMONIE      PTCLDY    69  65  87 CALM      29.79R
NEW RICHMOND   CLEAR     64  64  97 CALM      29.80R
OSCEOLA        CLOUDY    67  67 100 CALM      29.81S
$$

WIZ003>005-009-010-017-018-200400-
NORTH CENTRAL WISCONSIN

CITY           SKY/WX    TMP DP  RH WIND       PRES   REMARKS
WOODRUFF       CLOUDY    62  59  89 N3        29.79S
RHINELANDER    MOCLDY    59  57  93 CALM      29.79R
EAGLE RIVER    CLOUDY    60  59  96 NW5       29.78S
LAND O LAKES   RAIN      59  57  93 NW8       29.79S
PHILLIPS       CLOUDY    62  60  94 CALM      29.79S
TOMAHAWK       CLEAR     58  56  96 CALM      29.79S
MEDFORD        CLOUDY    63  62  98 CALM      29.79S
MERRILL        PTCLDY    63  63  99 CALM      29.78R
$$

WIZ029-030-035-036-043>047-200400-
CENTRAL WISCONSIN

CITY           SKY/WX    TMP DP  RH WIND       PRES   REMARKS
WAUSAU         CLEAR     65  63  93 NW5       29.76R
MOSINEE        PTCLDY    63  63 100 W3        29.78R
MARSHFIELD     PTCLDY    64  62  93 CALM      29.78R
STEVENS POINT  PTCLDY    65  62  90 CALM      29.78R
WAUPACA        PTCLDY    68  64  86 CALM      29.76S
WAUTOMA        CLEAR     65  63  93 NW5       29.77R
WISC RAPIDS    MOCLDY    66  63  90 NW3       29.78S
CAMP DOUGLAS   PTCLDY    63  63 100 SW2       29.78R
$$

WIZ011>013-019>022-031-037>040-048>050-200400-
NORTHEAST WISCONSIN

CITY           SKY/WX    TMP DP  RH WIND       PRES   REMARKS
ANTIGO         PTCLDY    60  59  97 W5        29.77S
STURGEON BAY   MOCLDY    66  63  88 W5        29.72S
GREEN BAY      MOCLDY    65  64  97 CALM      29.73R
MANITOWOC      PTCLDY    68  64  87 CALM      29.74R
APPLETON       MOCLDY    66  63  88 W8        29.75S
CLINTONVILLE   PTCLDY    64  63  94 W3        29.74S
OSHKOSH        PTCLDY    69  63  81 W5        29.75R
$$

WIZ032>034-041-042-053>061-200400-
SOUTHWEST WISCONSIN

CITY           SKY/WX    TMP DP  RH WIND       PRES   REMARKS
LA CROSSE      PTCLDY    71  66  84 CALM      29.77R
SPARTA         PTCLDY    64  62  94 CALM      29.79R
VIROQUA        FAIR      66  65  97 CALM      29.81R
BOSCOBEL       CLEAR     67  64  90 CALM      29.79R
PRAIRIE DU CHI CLEAR     68  64  85 CALM      29.79R
PLATTEVILLE    FAIR      69  64  83 W5        29.81R
$$

WIZ056-057-062-063-064-067-068-200400-
SOUTH CENTRAL WISCONSIN

CITY           SKY/WX    TMP DP  RH WIND       PRES   REMARKS
BARABOO/DELLS  CLEAR     66  61  84 CALM      29.78R
LONE ROCK      PTCLDY    71  65  81 W5        29.78R
WATERTOWN      CLEAR     65  64  96 CALM      29.77R
MADISON        PTCLDY    67  63  87 CALM      29.77R
MIDDLETON      FAIR      67  66  97 CALM      29.79R
MONROE         CLEAR     72  63  73 W9        29.79R
JANESVILLE     PTCLDY    70  63  78 CALM      29.77R
$$

WIZ051-052-058>065-066-070>072-200400-
SOUTHEAST WISCONSIN

CITY           SKY/WX    TMP DP  RH WIND       PRES   REMARKS
MILWAUKEE      MOCLDY    72  65  78 CALM      29.76R
WAUKESHA       CLEAR     68  63  83 W5        29.78S
MILWAUKEE/TIMM CLEAR     70  61  73 CALM      29.77R
RACINE         CLEAR     70  67  90 W3        29.78R
BURLINGTON     CLEAR     64  62  91 CALM      29.77S
KENOSHA        CLEAR     66  64  93 W3        29.77R
FOND DU LAC    CLEAR     68  61  78 SW6       29.75S
SHEBOYGAN      CLEAR     65  61  87 SW3       29.74S
WEST BEND      CLEAR     68  61  77 CALM      29.76S
JUNEAU         CLEAR     66  38  35 CALM      29.78R
$$

LSZ147-162-200400-
LAKE SUPERIOR

STATION/POSITION TIME  TEMP    WIND        PRES    WAVE
                       AIR SEA DIR/SP/G            HT/PER
                 (UTC) (F)     (DEG/KT/KT) (MB)    (FT/S)
W MID LAKE BUOY  0250   56 56   20/ 10/ 12 1008.7R   2/ 4
DEVILS ISLAND    0300   60      80/  7/  8 1009.5R
PORT WING        0200   63     350/  3/  4 1008.8R
SAXON HARBOR     0200   60      70/  5/  8 1009.1R
$$

LMZ867-665-643>646-200400-
LAKE MICHIGAN

STATION/POSITION TIME  TEMP    WIND        PRES    WAVE
                       AIR SEA DIR/SP/G            HT/PER
                 (UTC) (F)     (DEG/KT/KT) (MB)    (FT/S)
N MID LAKE BUOY  0250   63 62  200/  4/  8 1005.1R   1/ 5
NORTHPORT PIER   0200   65     270/  4/  7 1005.4R
SISTER BAY       0226   65     280/  5/  6   N/A
ALGOMA LAKESHORE 0222             CALM       N/A
KEWAUNEE LAKESHO 0200   68     260/  3/  5 1005.7R
SHEBOYGAN LAKESH 0300   69 65  220/  6/  6 1007.1R
ATWATER BUOY     0300   68        CALM     1008.8R
MILWAUKEE LAKESH 0200   72      30/  1/  2   N/A
S MID LAKE BUOY  0250   68 67   70/  2/  4 1007.2R   1/ 5
KENOSHA   LAKESH 0300   73     230/  2/  2 1007.5R
$$

TC  - TEMPERATURE IN CELSIUS
VSB - VISIBILITY IN STATUTE MILES
WCI - WIND CHILL INDEX
HX  - HEAT INDEX



USA.gov is the U.S. government's official web portal to all federal, state and local government web resources and services.